Regional Weather Roundup
Issued by NWS Cleveland, OH

Home | Current Version | Previous Version | Graphics & Text | Print | Product List | Glossary On
Versions: 1 2 3 4 5 6 7 8 9 10 11 12 13 14 15 16 17 18 19 20 21 22 23 24 25 26 27 28 29 30 31 32 33 34 35 36 37 38 39 40 41 42 43 44 45 46 47 48 49 50
000
ASUS41 KCLE 240402
RWRCLE
OHIO REGIONAL WEATHER ROUNDUP
NATIONAL WEATHER SERVICE CLEVELAND, OH
1200 AM EDT THU APR 24 2014

NOTE: "FAIR" INDICATES FEW OR NO CLOUDS BELOW 12,000 FEET WITH NO
SIGNIFICANT WEATHER AND/OR OBSTRUCTIONS TO VISIBILITY.

OHZ001>008-015>018-024>027-034-035-043-044-240500-
   NORTHWEST OHIO

CITY           SKY/WX    TMP DP  RH WIND       PRES   REMARKS
DEFIANCE       CLOUDY    50  29  44 E5        30.11S
FINDLAY        CLOUDY    47  32  56 E8        30.11R
TOLEDO EXPRESS CLOUDY    46  30  53 E5        30.12S
TOLEDO EXEC    CLOUDY    45  31  58 SE3       30.14R
LIMA           MOCLDY    47  33  58 SE10      30.09F
$$

OHZ009>014-019>023-028>033-038-089-240500-
   NORTHEAST OHIO

CITY           SKY/WX    TMP DP  RH WIND       PRES   REMARKS
CLE-HOPKINS    PTCLDY    38  25  59 CALM      30.15S
CLE-LAKEFRONT  CLEAR     41  23  48 NE6       30.12F
CUY CO. ARPT   NOT AVBL
LORAIN-ELYRIA  PTCLDY    38  30  73 CALM      30.13F
ASHTABULA      CLEAR     35  15  44 NW5       30.13R
AKRON-CANTON   CLEAR     38  23  55 N5        30.12S
WOOSTER        CLEAR     33  29  85 W3        30.13S
MANSFIELD      MOCLDY    39  28  64 CALM      30.12S
YOUNGSTOWN     PTCLDY    34  17  50 NW5       30.10S WCI  30
$$

OHZ042-051>053-060>062-070>072-077>081-240500-
  SOUTHWEST OHIO

CITY           SKY/WX    TMP DP  RH WIND       PRES   REMARKS
CINC-COVINGTON MOCLDY    54  32  43 NE8       30.08S
CINC-LUNKEN    CLEAR     43  39  86 CALM      30.10S
HAMILTON       CLEAR     45  35  68 CALM      30.09F
DAYTON         PTCLDY    47  33  58 E9        30.10S
WRIGHT-PAT AFB PTCLDY    47  33  59 NE6       30.10S
DAYTON GENERAL CLEAR     47  33  58 E6        30.08F
WILMINGTON     CLEAR     45  32  60 E8        30.08F
$$

OHZ036-037-039>041-045>050-054>059-063>069-073>076-082>088-240500-
  CENTRAL AND SOUTHEAST OHIO

CITY           SKY/WX    TMP DP  RH WIND       PRES   REMARKS
COLUMBUS       PTCLDY    45  30  55 E6        30.12S
OSU AIRPORT    PTCLDY    41  30  65 E6        30.12S
BOLTON FIELD   NOT AVBL
RICKENBACK AFB NOT AVBL
NEWARK         CLEAR     43  29  57 NE3       30.12S
MARION         MOCLDY    40  30  67 E6        30.12S
LANCASTER      CLEAR     41  32  70 N5        30.12S
ZANESVILLE     CLEAR     42  29  59 NE3       30.12S
NEW PHILLY     CLEAR     35  28  75 CALM      30.14R
$$



USA.gov is the U.S. government's official web portal to all federal, state and local government web resources and services.